Dades meteomassalio
Diari Summary for Abril 11, 2017 Units:  Metric    English   Both
« Previous Day
Next Day »
Diari Semanal Mensual Anual Personalitzat
  Maxima: Minima: Mijana:
Temperatura: 25.2 °C 7.0 °C 16.5 °C
Rosada: 9.3 °C -1.8 °C 5.1 °C
Humitat: 85 % 17 % 52 %
Velocitat del vent: 27.8 km/h 0.0 km/h 9.3 km/h
Racha vent: 27.8 km/h - -
Vent:- - WNW
Pressio: 1022.9 hPa 1018.5 hPa -
Pluja: 0.0 mm    
Historical Graphs
 
 
Tabular Data for Abril 11, 2017
Time Temperature Dew Point Pressure Wind Wind Speed Wind Gust Humidity Rainfall Rate (Hourly) solar Conditions
00:03 11.8 °C 5.7 °C 1022.6 hPa Calm     66 % 0.0 mm 0.0 W/m2 CLR
00:08 11.8 °C 5.8 °C 1022.6 hPa Calm     67 % 0.0 mm 0.0 W/m2 CLR
00:13 11.7 °C 5.8 °C 1022.6 hPa Calm     67 % 0.0 mm 0.0 W/m2 CLR
00:18 11.7 °C 5.8 °C 1022.6 hPa Calm     67 % 0.0 mm 0.0 W/m2 CLR
00:23 11.6 °C 5.7 °C 1022.6 hPa Calm     67 % 0.0 mm 0.0 W/m2 CLR
00:28 11.4 °C 5.7 °C 1022.6 hPa Calm     68 % 0.0 mm 0.0 W/m2 CLR
00:33 11.2 °C 5.7 °C 1022.2 hPa Calm     69 % 0.0 mm 0.0 W/m2 CLR
00:38 11.0 °C 5.7 °C 1022.2 hPa Calm     70 % 0.0 mm 0.0 W/m2 CLR
00:43 10.9 °C 5.6 °C 1022.6 hPa Calm     70 % 0.0 mm 0.0 W/m2 CLR
00:48 10.8 °C 5.8 °C 1022.6 hPa Calm     71 % 0.0 mm 0.0 W/m2 CLR
00:53 10.8 °C 5.7 °C 1022.2 hPa Calm     71 % 0.0 mm 0.0 W/m2 CLR
00:58 10.8 °C 5.8 °C 1022.6 hPa Calm     71 % 0.0 mm 0.0 W/m2 CLR
01:03 10.9 °C 5.6 °C 1022.6 hPa Calm     70 % 0.0 mm 0.0 W/m2 CLR
01:08 10.9 °C 5.6 °C 1022.6 hPa Calm     70 % 0.0 mm 0.0 W/m2 CLR
01:13 10.7 °C 5.7 °C 1022.2 hPa Calm     71 % 0.0 mm 0.0 W/m2 CLR
01:18 10.7 °C 5.9 °C 1022.2 hPa Calm     72 % 0.0 mm 0.0 W/m2 CLR
01:23 10.9 °C 5.8 °C 1022.2 hPa Calm     71 % 0.0 mm 0.0 W/m2 CLR
01:28 10.8 °C 5.7 °C 1022.2 hPa Calm     71 % 0.0 mm 0.0 W/m2 CLR
01:33 10.8 °C 5.7 °C 1022.2 hPa Calm     71 % 0.0 mm 0.0 W/m2 CLR
01:38 10.8 °C 5.7 °C 1022.2 hPa Calm     71 % 0.0 mm 0.0 W/m2 CLR
01:43 10.7 °C 5.6 °C 1022.2 hPa Calm     71 % 0.0 mm 0.0 W/m2 CLR
01:48 10.3 °C 5.5 °C 1022.2 hPa Calm     72 % 0.0 mm 0.0 W/m2 CLR
01:53 10.2 °C 5.6 °C 1022.2 hPa Calm     73 % 0.0 mm 0.0 W/m2 CLR
01:58 10.1 °C 5.6 °C 1022.2 hPa Calm     74 % 0.0 mm 0.0 W/m2 CLR
02:03 10.0 °C 5.6 °C 1022.2 hPa Calm     74 % 0.0 mm 0.0 W/m2 CLR
02:08 10.1 °C 5.8 °C 1022.2 hPa Calm     75 % 0.0 mm 0.0 W/m2 CLR
02:13 10.2 °C 5.7 °C 1022.2 hPa Calm     74 % 0.0 mm 0.0 W/m2 CLR
02:18 10.2 °C 5.8 °C 1022.2 hPa Calm     74 % 0.0 mm 0.0 W/m2 CLR
02:23 10.1 °C 5.4 °C 1022.2 hPa Calm     73 % 0.0 mm 0.0 W/m2 CLR
02:28 9.9 °C 5.5 °C 1022.2 hPa Calm     74 % 0.0 mm 0.0 W/m2 CLR
02:33 9.8 °C 5.4 °C 1022.2 hPa Calm     74 % 0.0 mm 0.0 W/m2 CLR
02:38 9.6 °C 5.4 °C 1021.9 hPa Calm     75 % 0.0 mm 0.0 W/m2 CLR
02:43 9.6 °C 5.6 °C 1021.9 hPa Calm     76 % 0.0 mm 0.0 W/m2 CLR
02:48 9.5 °C 5.5 °C 1021.9 hPa Calm     76 % 0.0 mm 0.0 W/m2 CLR
02:53 9.4 °C 5.4 °C 1021.9 hPa Calm     76 % 0.0 mm 0.0 W/m2 CLR
02:58 9.3 °C 5.5 °C 1021.9 hPa Calm     77 % 0.0 mm 0.0 W/m2 CLR
03:03 9.3 °C 5.4 °C 1021.9 hPa Calm     77 % 0.0 mm 0.0 W/m2 CLR
03:08 9.4 °C 5.6 °C 1021.9 hPa Calm     77 % 0.0 mm 0.0 W/m2 CLR
03:13 9.4 °C 5.6 °C 1021.9 hPa Calm     77 % 0.0 mm 0.0 W/m2 CLR
03:18 9.4 °C 5.6 °C 1021.9 hPa Calm     77 % 0.0 mm 0.0 W/m2 CLR
03:23 9.3 °C 5.5 °C 1021.9 hPa Calm     77 % 0.0 mm 0.0 W/m2 CLR
03:28 9.3 °C 5.4 °C 1021.9 hPa Calm     77 % 0.0 mm 0.0 W/m2 CLR
03:33 9.1 °C 5.3 °C 1021.9 hPa Calm     77 % 0.0 mm 0.0 W/m2 CLR
03:38 8.9 °C 5.3 °C 1021.9 hPa Calm     78 % 0.0 mm 0.0 W/m2 CLR
03:43 8.8 °C 5.3 °C 1021.9 hPa Calm     79 % 0.0 mm 0.0 W/m2 CLR
03:48 8.8 °C 5.3 °C 1021.9 hPa Calm     79 % 0.0 mm 0.0 W/m2 CLR
03:53 8.8 °C 5.3 °C 1021.9 hPa Calm     79 % 0.0 mm 0.0 W/m2 CLR
03:58 8.9 °C 5.5 °C 1021.9 hPa Calm     79 % 0.0 mm 0.0 W/m2 CLR
04:03 8.9 °C 5.3 °C 1021.9 hPa Calm     78 % 0.0 mm 0.0 W/m2 CLR
04:08 8.8 °C 5.4 °C 1021.9 hPa Calm     79 % 0.0 mm 0.0 W/m2 CLR
04:13 8.8 °C 5.2 °C 1021.9 hPa Calm     78 % 0.0 mm 0.0 W/m2 CLR
04:19 8.8 °C 5.4 °C 1021.6 hPa Calm     79 % 0.0 mm 0.0 W/m2 CLR
04:24 8.8 °C 5.4 °C 1021.9 hPa WSW 3.7 km/h 3.7 km/h 79 % 0.0 mm 0.0 W/m2 CLR
04:29 9.0 °C 5.6 °C 1021.9 hPa Calm     79 % 0.0 mm 0.0 W/m2 CLR
04:34 9.0 °C 5.4 °C 1021.9 hPa Calm     78 % 0.0 mm 0.0 W/m2 CLR
04:39 8.9 °C 5.3 °C 1021.9 hPa Calm     78 % 0.0 mm 0.0 W/m2 CLR
04:44 8.9 °C 5.3 °C 1021.9 hPa Calm     78 % 0.0 mm 0.0 W/m2 CLR
04:49 8.9 °C 5.4 °C 1021.9 hPa Calm     79 % 0.0 mm 0.0 W/m2 CLR
04:54 9.0 °C 5.4 °C 1021.9 hPa Calm     78 % 0.0 mm 0.0 W/m2 CLR
04:59 9.0 °C 5.6 °C 1021.9 hPa Calm     79 % 0.0 mm 0.0 W/m2 CLR
05:04 8.9 °C 5.3 °C 1021.6 hPa Calm     78 % 0.0 mm 0.0 W/m2 CLR
05:09 8.8 °C 5.2 °C 1021.6 hPa Calm     78 % 0.0 mm 0.0 W/m2 CLR
05:14 8.7 °C 5.2 °C 1021.6 hPa Calm     79 % 0.0 mm 0.0 W/m2 CLR
05:19 8.7 °C 5.2 °C 1021.6 hPa Calm     79 % 0.0 mm 0.0 W/m2 CLR
05:24 8.8 °C 5.5 °C 1021.6 hPa Calm     80 % 0.0 mm 0.0 W/m2 CLR
05:29 8.7 °C 5.3 °C 1021.6 hPa Calm     79 % 0.0 mm 0.0 W/m2 CLR
05:34 8.7 °C 5.2 °C 1021.6 hPa Calm     79 % 0.0 mm 0.0 W/m2 CLR
05:39 8.4 °C 5.0 °C 1021.6 hPa Calm     79 % 0.0 mm 0.0 W/m2 CLR
05:44 8.4 °C 5.1 °C 1021.9 hPa Calm     80 % 0.0 mm 0.0 W/m2 CLR
05:49 8.3 °C 5.1 °C 1021.6 hPa Calm     80 % 0.0 mm 0.0 W/m2 CLR
05:54 8.2 °C 4.9 °C 1021.6 hPa Calm     80 % 0.0 mm 0.0 W/m2 CLR
05:59 8.1 °C 5.1 °C 1021.9 hPa Calm     81 % 0.0 mm 0.0 W/m2 CLR
06:04 8.2 °C 5.1 °C 1021.9 hPa Calm     81 % 0.0 mm 0.0 W/m2 CLR
06:09 8.1 °C 5.1 °C 1021.9 hPa Calm     81 % 0.0 mm 0.0 W/m2 CLR
06:14 8.0 °C 4.9 °C 1021.9 hPa Calm     81 % 0.0 mm 0.0 W/m2 CLR
06:19 8.0 °C 5.1 °C 1021.9 hPa Calm     82 % 0.0 mm 0.0 W/m2 CLR
06:24 8.0 °C 5.1 °C 1021.9 hPa Calm     82 % 0.0 mm 0.0 W/m2 CLR
06:29 8.0 °C 5.1 °C 1021.9 hPa Calm     82 % 0.0 mm 0.0 W/m2 CLR
06:34 8.1 °C 5.2 °C 1021.9 hPa Calm     82 % 0.0 mm 0.0 W/m2 CLR
06:39 8.0 °C 4.9 °C 1021.9 hPa Calm     81 % 0.0 mm 0.0 W/m2 CLR
06:44 7.8 °C 4.8 °C 1022.2 hPa Calm     81 % 0.0 mm 0.0 W/m2 CLR
06:49 7.7 °C 4.8 °C 1022.2 hPa Calm     82 % 0.0 mm 0.0 W/m2 CLR
06:54 7.8 °C 5.1 °C 1021.9 hPa SW 5.6 km/h 5.6 km/h 83 % 0.0 mm 0.0 W/m2 CLR
06:59 8.1 °C 5.2 °C 1022.2 hPa Calm     82 % 0.0 mm 0.0 W/m2 CLR
07:04 7.9 °C 4.8 °C 1022.2 hPa Calm     81 % 0.0 mm 0.0 W/m2 CLR
07:09 7.6 °C 4.6 °C 1022.2 hPa Calm     81 % 0.0 mm 0.0 W/m2 CLR
07:14 7.3 °C 4.4 °C 1022.2 hPa Calm     82 % 0.0 mm 0.0 W/m2 CLR
07:19 7.1 °C 4.4 °C 1022.2 hPa Calm     83 % 0.0 mm 0.0 W/m2 OVC
07:24 7.0 °C 4.3 °C 1022.2 hPa Calm     83 % 0.0 mm 0.0 W/m2 OVC
07:29 7.1 °C 4.7 °C 1022.2 hPa Calm     85 % 0.0 mm 5.0 W/m2 OVC
07:34 7.2 °C 4.8 °C 1022.6 hPa Calm     85 % 0.0 mm 5.0 W/m2 OVC
07:39 7.1 °C 4.4 °C 1022.6 hPa Calm     83 % 0.0 mm 11.0 W/m2 BKN
07:44 7.0 °C 4.5 °C 1022.6 hPa Calm     84 % 0.0 mm 14.0 W/m2 BKN
07:49 7.0 °C 4.5 °C 1022.6 hPa Calm     84 % 0.0 mm 18.0 W/m2 BKN
07:54 7.1 °C 4.7 °C 1022.6 hPa Calm     85 % 0.0 mm 21.0 W/m2 BKN
07:59 7.2 °C 4.9 °C 1022.6 hPa Calm     85 % 0.0 mm 26.0 W/m2 BKN
08:04 7.5 °C 4.9 °C 1022.6 hPa Calm     84 % 0.0 mm 30.0 W/m2 BKN
08:10 7.6 °C 4.8 °C 1022.9 hPa Calm     83 % 0.0 mm 35.0 W/m2 BKN
08:15 7.7 °C 5.2 °C 1022.9 hPa Calm     84 % 0.0 mm 53.0 W/m2 SCT
08:20 8.1 °C 5.5 °C 1022.9 hPa Calm     84 % 0.0 mm 67.0 W/m2 SCT
08:25 8.3 °C 5.6 °C 1022.9 hPa Calm     83 % 0.0 mm 86.0 W/m2 FEW
08:30 8.7 °C 5.8 °C 1022.9 hPa Calm     82 % 0.0 mm 104.0 W/m2 FEW
08:35 9.1 °C 5.9 °C 1022.9 hPa Calm     81 % 0.0 mm 123.0 W/m2 CLR
08:40 9.4 °C 6.1 °C 1022.9 hPa Calm     80 % 0.0 mm 139.0 W/m2 CLR
08:45 9.8 °C 6.4 °C 1022.9 hPa Calm     79 % 0.0 mm 155.0 W/m2 CLR
08:50 10.3 °C 6.7 °C 1022.9 hPa Calm     78 % 0.0 mm 171.0 W/m2 CLR
08:55 10.9 °C 7.0 °C 1022.9 hPa Calm     77 % 0.0 mm 49.0 W/m2 CLR
09:00 11.4 °C 6.9 °C 1022.9 hPa Calm     74 % 0.0 mm 176.0 W/m2 FEW
09:05 11.9 °C 7.2 °C 1022.9 hPa Calm     73 % 0.0 mm 232.0 W/m2 FEW
09:10 12.5 °C 7.6 °C 1022.9 hPa Calm     72 % 0.0 mm 250.0 W/m2 CLR
09:15 13.1 °C 7.6 °C 1022.9 hPa Calm     69 % 0.0 mm 265.0 W/m2 CLR
09:20 13.8 °C 7.8 °C 1022.9 hPa Calm     67 % 0.0 mm 283.0 W/m2 CLR
09:25 14.4 °C 7.9 °C 1022.6 hPa WNW 13.0 km/h 13.0 km/h 65 % 0.0 mm 299.0 W/m2 CLR
09:30 15.2 °C 7.7 °C 1022.6 hPa West 11.1 km/h 11.1 km/h 61 % 0.0 mm 315.0 W/m2 CLR
09:35 15.7 °C 7.7 °C 1022.6 hPa West 13.0 km/h 13.0 km/h 59 % 0.0 mm 330.0 W/m2 CLR
09:40 15.9 °C 7.6 °C 1022.6 hPa NW 18.5 km/h 18.5 km/h 58 % 0.0 mm 346.0 W/m2 CLR
09:45 16.1 °C 7.6 °C 1022.6 hPa WNW 22.2 km/h 22.2 km/h 57 % 0.0 mm 366.0 W/m2 CLR
09:50 16.2 °C 7.4 °C 1022.6 hPa West 18.5 km/h 18.5 km/h 56 % 0.0 mm 381.0 W/m2 CLR
09:55 16.2 °C 7.4 °C 1022.6 hPa WNW 16.7 km/h 16.7 km/h 56 % 0.0 mm 397.0 W/m2 CLR
10:00 16.3 °C 7.3 °C 1022.6 hPa WNW 24.1 km/h 24.1 km/h 55 % 0.0 mm 410.0 W/m2 CLR
10:05 16.5 °C 7.7 °C 1022.6 hPa NW 18.5 km/h 18.5 km/h 56 % 0.0 mm 427.0 W/m2 CLR
10:10 16.6 °C 7.5 °C 1022.6 hPa NW 11.1 km/h 11.1 km/h 55 % 0.0 mm 443.0 W/m2 CLR
10:15 16.7 °C 7.6 °C 1022.6 hPa WNW 18.5 km/h 18.5 km/h 55 % 0.0 mm 459.0 W/m2 CLR
10:20 16.8 °C 7.2 °C 1022.6 hPa West 22.2 km/h 22.2 km/h 53 % 0.0 mm 475.0 W/m2 CLR
10:25 16.8 °C 7.7 °C 1022.6 hPa NNW 13.0 km/h 13.0 km/h 55 % 0.0 mm 489.0 W/m2 CLR
10:30 17.1 °C 8.0 °C 1022.6 hPa WNW 19.3 km/h 19.3 km/h 55 % 0.0 mm 506.0 W/m2 CLR
10:35 17.1 °C 7.7 °C 1022.6 hPa WNW 14.8 km/h 14.8 km/h 54 % 0.0 mm 520.0 W/m2 CLR
10:40 17.2 °C 8.1 °C 1022.9 hPa NW 13.0 km/h 13.0 km/h 55 % 0.0 mm 534.0 W/m2 CLR
10:45 17.3 °C 7.9 °C 1022.6 hPa WNW 13.0 km/h 13.0 km/h 54 % 0.0 mm 548.0 W/m2 CLR
10:50 17.4 °C 7.7 °C 1022.6 hPa WSW 14.8 km/h 14.8 km/h 53 % 0.0 mm 566.0 W/m2 CLR
10:55 17.6 °C 8.2 °C 1022.6 hPa NW 14.8 km/h 14.8 km/h 54 % 0.0 mm 578.0 W/m2 CLR
11:00 17.8 °C 8.1 °C 1022.6 hPa WNW 14.8 km/h 14.8 km/h 53 % 0.0 mm 592.0 W/m2 CLR
11:05 17.8 °C 7.8 °C 1022.6 hPa WNW 16.7 km/h 16.7 km/h 52 % 0.0 mm 605.0 W/m2 CLR
11:10 18.0 °C 8.3 °C 1022.6 hPa NW 18.5 km/h 18.5 km/h 53 % 0.0 mm 624.0 W/m2 CLR
11:15 18.1 °C 8.1 °C 1022.6 hPa WSW 6.4 km/h 6.4 km/h 52 % 0.0 mm 635.0 W/m2 CLR
11:20 18.3 °C 8.3 °C 1022.6 hPa WSW 7.4 km/h 7.4 km/h 52 % 0.0 mm 647.0 W/m2 CLR
11:25 18.6 °C 8.5 °C 1022.6 hPa NW 11.1 km/h 11.1 km/h 52 % 0.0 mm 659.0 W/m2 CLR
11:30 18.6 °C 8.6 °C 1022.6 hPa NW 18.5 km/h 18.5 km/h 52 % 0.0 mm 673.0 W/m2 CLR
11:35 18.6 °C 8.2 °C 1022.6 hPa West 22.5 km/h 22.5 km/h 51 % 0.0 mm 684.0 W/m2 CLR
11:40 18.5 °C 8.2 °C 1022.6 hPa WNW 4.8 km/h 4.8 km/h 51 % 0.0 mm 694.0 W/m2 CLR
11:45 18.7 °C 8.1 °C 1022.6 hPa WNW 18.5 km/h 18.5 km/h 50 % 0.0 mm 707.0 W/m2 CLR
11:50 18.7 °C 8.1 °C 1022.6 hPa WNW 22.2 km/h 22.2 km/h 50 % 0.0 mm 717.0 W/m2 CLR
11:55 18.8 °C 8.4 °C 1022.6 hPa West 9.3 km/h 9.3 km/h 51 % 0.0 mm 728.0 W/m2 CLR
12:00 19.1 °C 8.7 °C 1022.6 hPa WNW 20.4 km/h 20.4 km/h 51 % 0.0 mm 740.0 W/m2 CLR
12:05 19.2 °C 8.5 °C 1022.6 hPa NW 24.1 km/h 24.1 km/h 50 % 0.0 mm 747.0 W/m2 CLR
12:10 19.4 °C 8.1 °C 1022.2 hPa West 18.5 km/h 18.5 km/h 48 % 0.0 mm 756.0 W/m2 CLR
12:15 19.6 °C 8.3 °C 1022.2 hPa WNW 20.4 km/h 20.4 km/h 48 % 0.0 mm 770.0 W/m2 CLR
12:20 19.7 °C 8.3 °C 1022.2 hPa WNW 11.3 km/h 11.3 km/h 48 % 0.0 mm 775.0 W/m2 CLR
12:25 19.6 °C 8.3 °C 1022.2 hPa WNW 19.3 km/h 19.3 km/h 48 % 0.0 mm 782.0 W/m2 CLR
12:30 19.8 °C 8.5 °C 1022.2 hPa WNW 5.6 km/h 5.6 km/h 48 % 0.0 mm 789.0 W/m2 CLR
12:35 20.0 °C 8.3 °C 1022.2 hPa WSW 20.9 km/h 20.9 km/h 47 % 0.0 mm 798.0 W/m2 CLR
12:40 20.2 °C 9.1 °C 1022.2 hPa NW 14.8 km/h 14.8 km/h 49 % 0.0 mm 807.0 W/m2 CLR
12:45 20.3 °C 8.6 °C 1021.9 hPa WSW 18.5 km/h 18.5 km/h 47 % 0.0 mm 807.0 W/m2 CLR
12:50 20.4 °C 9.0 °C 1022.2 hPa West 16.7 km/h 16.7 km/h 48 % 0.0 mm 816.0 W/m2 CLR
12:55 20.5 °C 8.5 °C 1021.9 hPa WNW 18.5 km/h 18.5 km/h 46 % 0.0 mm 821.0 W/m2 CLR
13:00 20.7 °C 9.3 °C 1021.9 hPa NNW 20.4 km/h 20.4 km/h 48 % 0.0 mm 823.0 W/m2 CLR
13:05 20.8 °C 9.1 °C 1021.6 hPa WSW 24.1 km/h 24.1 km/h 47 % 0.0 mm 830.0 W/m2 CLR
13:10 20.8 °C 9.1 °C 1021.9 hPa NNW 16.1 km/h 16.1 km/h 47 % 0.0 mm 835.0 W/m2 CLR
13:15 20.9 °C 9.2 °C 1021.9 hPa NW 16.7 km/h 16.7 km/h 47 % 0.0 mm 835.0 W/m2 CLR
13:20 21.1 °C 9.3 °C 1021.6 hPa WSW 5.6 km/h 5.6 km/h 47 % 0.0 mm 844.0 W/m2 CLR
13:25 21.3 °C 8.8 °C 1021.6 hPa WNW 18.5 km/h 18.5 km/h 45 % 0.0 mm 842.0 W/m2 CLR
13:30 21.4 °C 9.3 °C 1021.6 hPa NW 22.2 km/h 22.2 km/h 46 % 0.0 mm 849.0 W/m2 CLR
13:35 21.5 °C 9.1 °C 1021.6 hPa WNW 5.6 km/h   45 % 0.0 mm 847.0 W/m2 CLR
13:40 21.8 °C 9.3 °C 1021.2 hPa NW 20.4 km/h 20.4 km/h 45 % 0.0 mm 847.0 W/m2 CLR
13:45 21.7 °C 8.9 °C 1021.2 hPa NNW 20.4 km/h 20.4 km/h 44 % 0.0 mm 853.0 W/m2 CLR
13:50 21.9 °C 8.4 °C 1021.2 hPa North 13.0 km/h 13.0 km/h 42 % 0.0 mm 856.0 W/m2 CLR
13:55 22.2 °C 9.0 °C 1020.9 hPa West 18.5 km/h 18.5 km/h 43 % 0.0 mm 856.0 W/m2 CLR
14:00 22.3 °C 9.1 °C 1020.9 hPa WNW 18.5 km/h 18.5 km/h 43 % 0.0 mm 856.0 W/m2 CLR
14:05 22.4 °C 8.8 °C 1020.9 hPa NNW 22.2 km/h 22.2 km/h 42 % 0.0 mm 853.0 W/m2 CLR
14:10 22.5 °C 8.6 °C 1020.9 hPa NW 20.4 km/h 20.4 km/h 41 % 0.0 mm 856.0 W/m2 CLR
14:11 22.5 °C 8.6 °C 1020.9 hPa West 9.3 km/h 9.3 km/h 41 % 0.0 mm 854.0 W/m2 CLR
14:16 22.7 °C 8.4 °C 1020.9 hPa NW 25.9 km/h 25.9 km/h 40 % 0.0 mm 853.0 W/m2 CLR
14:21 22.8 °C 8.9 °C 1020.9 hPa NNW 13.0 km/h 13.0 km/h 41 % 0.0 mm 849.0 W/m2 CLR
14:26 23.0 °C 8.7 °C 1020.9 hPa WNW 18.5 km/h 18.5 km/h 40 % 0.0 mm 849.0 W/m2 CLR
14:31 23.1 °C 8.8 °C 1020.9 hPa NW 11.1 km/h 11.1 km/h 40 % 0.0 mm 846.0 W/m2 CLR
14:36 23.2 °C 8.9 °C 1020.9 hPa North 20.4 km/h 20.4 km/h 40 % 0.0 mm 842.0 W/m2 CLR
14:41 23.3 °C 8.9 °C 1020.5 hPa NNW 18.5 km/h 18.5 km/h 40 % 0.0 mm 840.0 W/m2 CLR
14:46 23.4 °C 8.7 °C 1020.5 hPa NW 19.3 km/h 19.3 km/h 39 % 0.0 mm 838.0 W/m2 CLR
14:51 23.4 °C 8.3 °C 1020.5 hPa WNW 22.5 km/h 22.5 km/h 38 % 0.0 mm 837.0 W/m2 CLR
14:56 23.5 °C 8.3 °C 1020.5 hPa NW 24.1 km/h 24.1 km/h 38 % 0.0 mm 826.0 W/m2 CLR
15:01 23.6 °C 8.4 °C 1020.5 hPa NW 20.4 km/h 20.4 km/h 38 % 0.0 mm 824.0 W/m2 CLR
15:07 23.8 °C 8.6 °C 1020.5 hPa NNW 25.9 km/h 25.9 km/h 38 % 0.0 mm 823.0 W/m2 CLR
15:12 23.7 °C 8.6 °C 1020.5 hPa NW 24.1 km/h 24.1 km/h 38 % 0.0 mm 819.0 W/m2 CLR
15:17 23.7 °C 8.6 °C 1020.2 hPa NW 18.5 km/h 18.5 km/h 38 % 0.0 mm 812.0 W/m2 CLR
15:22 23.9 °C 8.3 °C 1020.2 hPa WNW 25.9 km/h 25.9 km/h 37 % 0.0 mm 800.0 W/m2 CLR
15:27 23.9 °C 8.8 °C 1020.2 hPa WNW 24.1 km/h 24.1 km/h 38 % 0.0 mm 802.0 W/m2 CLR
15:32 24.0 °C 8.4 °C 1020.2 hPa NW 27.8 km/h 27.8 km/h 37 % 0.0 mm 788.0 W/m2 CLR
15:37 24.1 °C 8.1 °C 1020.2 hPa NW 22.2 km/h 22.2 km/h 36 % 0.0 mm 791.0 W/m2 CLR
15:42 24.2 °C 7.7 °C 1019.9 hPa WNW 14.8 km/h 14.8 km/h 35 % 0.0 mm 777.0 W/m2 CLR
15:47 24.3 °C 7.9 °C 1019.9 hPa North 18.5 km/h 18.5 km/h 35 % 0.0 mm 779.0 W/m2 CLR
15:52 24.6 °C 8.1 °C 1019.9 hPa North 18.5 km/h 18.5 km/h 35 % 0.0 mm 765.0 W/m2 CLR
15:57 24.6 °C 8.1 °C 1019.9 hPa North 17.7 km/h 17.7 km/h 35 % 0.0 mm 752.0 W/m2 CLR
16:02 24.8 °C 7.0 °C 1019.9 hPa NNW 25.9 km/h 25.9 km/h 32 % 0.0 mm 747.0 W/m2 CLR
16:07 24.6 °C 6.3 °C 1019.9 hPa NW 24.1 km/h 24.1 km/h 31 % 0.0 mm 735.0 W/m2 CLR
16:12 24.6 °C 7.2 °C 1019.5 hPa NNW 9.3 km/h 9.3 km/h 33 % 0.0 mm 731.0 W/m2 CLR
16:17 24.9 °C 7.1 °C 1019.5 hPa NNW 22.2 km/h 22.2 km/h 32 % 0.0 mm 728.0 W/m2 CLR
16:22 25.1 °C 6.8 °C 1019.5 hPa NNE 18.5 km/h 18.5 km/h 31 % 0.0 mm 721.0 W/m2 CLR
16:27 25.1 °C 5.8 °C 1019.5 hPa WNW 11.1 km/h 11.1 km/h 29 % 0.0 mm 694.0 W/m2 CLR
16:32 25.1 °C 6.3 °C 1019.5 hPa NNE 16.7 km/h 16.7 km/h 30 % 0.0 mm 698.0 W/m2 CLR
16:37 25.1 °C 4.2 °C 1019.2 hPa NW 20.4 km/h 20.4 km/h 26 % 0.0 mm 686.0 W/m2 CLR
16:42 25.1 °C 3.7 °C 1019.2 hPa WNW 19.3 km/h 19.3 km/h 25 % 0.0 mm 670.0 W/m2 CLR
16:47 25.1 °C 3.1 °C 1019.2 hPa NNW 25.9 km/h 25.9 km/h 24 % 0.0 mm 661.0 W/m2 CLR
16:52 25.0 °C 3.6 °C 1019.2 hPa NNW 20.4 km/h 20.4 km/h 25 % 0.0 mm 643.0 W/m2 CLR
16:57 24.8 °C 3.4 °C 1019.2 hPa NNW 18.5 km/h 18.5 km/h 25 % 0.0 mm 633.0 W/m2 CLR
17:02 25.1 °C 4.2 °C 1019.2 hPa NNW 17.7 km/h 17.7 km/h 26 % 0.0 mm 621.0 W/m2 CLR
17:07 25.1 °C 4.2 °C 1018.8 hPa NW 18.5 km/h 18.5 km/h 26 % 0.0 mm 603.0 W/m2 CLR
17:12 25.1 °C 4.7 °C 1018.8 hPa NW 8.0 km/h 8.0 km/h 27 % 0.0 mm 591.0 W/m2 CLR
17:17 25.1 °C 3.1 °C 1018.8 hPa NW 24.1 km/h 24.1 km/h 24 % 0.0 mm 577.0 W/m2 CLR
17:22 25.1 °C 4.2 °C 1018.8 hPa NNW 18.5 km/h 18.5 km/h 26 % 0.0 mm 561.0 W/m2 CLR
17:27 25.2 °C 3.8 °C 1018.8 hPa NW 22.2 km/h 22.2 km/h 25 % 0.0 mm 548.0 W/m2 CLR
17:32 25.1 °C 1.8 °C 1018.8 hPa NW 22.2 km/h 22.2 km/h 22 % 0.0 mm 538.0 W/m2 CLR
17:37 24.9 °C 1.7 °C 1018.5 hPa North 20.9 km/h 20.9 km/h 22 % 0.0 mm 526.0 W/m2 CLR
17:42 25.0 °C 0.4 °C 1018.5 hPa WNW 19.3 km/h 19.3 km/h 20 % 0.0 mm 508.0 W/m2 CLR
17:47 25.1 °C 0.6 °C 1018.5 hPa NW 20.4 km/h 20.4 km/h 20 % 0.0 mm 494.0 W/m2 CLR
17:52 25.2 °C 0.7 °C 1018.5 hPa WNW 16.7 km/h 16.7 km/h 20 % 0.0 mm 478.0 W/m2 CLR
17:57 25.2 °C 0.6 °C 1018.5 hPa North 24.1 km/h 24.1 km/h 20 % 0.0 mm 466.0 W/m2 CLR
18:02 25.1 °C 1.2 °C 1018.5 hPa NNW 18.5 km/h 18.5 km/h 21 % 0.0 mm 452.0 W/m2 CLR
18:07 25.0 °C 0.4 °C 1018.5 hPa NW 25.9 km/h 25.9 km/h 20 % 0.0 mm 427.0 W/m2 CLR
18:12 24.9 °C 1.7 °C 1018.5 hPa North 17.7 km/h 17.7 km/h 22 % 0.0 mm 417.0 W/m2 CLR
18:17 25.1 °C -0.2 °C 1018.5 hPa NNE 13.0 km/h 13.0 km/h 19 % 0.0 mm 401.0 W/m2 CLR
18:22 25.2 °C -1.6 °C 1018.5 hPa WNW 27.8 km/h 27.8 km/h 17 % 0.0 mm 387.0 W/m2 CLR
18:27 24.9 °C -1.8 °C 1018.5 hPa NNW 20.4 km/h 20.4 km/h 17 % 0.0 mm 366.0 W/m2 CLR
18:32 24.9 °C -0.3 °C 1018.5 hPa NW 13.0 km/h 13.0 km/h 19 % 0.0 mm 348.0 W/m2 CLR
18:37 24.9 °C 0.4 °C 1018.5 hPa NW 18.5 km/h 18.5 km/h 20 % 0.0 mm 334.0 W/m2 CLR
18:42 24.7 °C -1.2 °C 1018.5 hPa NNW 22.2 km/h 22.2 km/h 18 % 0.0 mm 318.0 W/m2 CLR
18:47 24.7 °C -1.3 °C 1018.5 hPa NW 20.4 km/h 20.4 km/h 18 % 0.0 mm 295.0 W/m2 CLR
18:52 24.6 °C -0.6 °C 1018.5 hPa WNW 6.4 km/h 6.4 km/h 19 % 0.0 mm 281.0 W/m2 CLR
18:57 24.7 °C -1.2 °C 1018.5 hPa NNW 18.5 km/h 18.5 km/h 18 % 0.0 mm 265.0 W/m2 CLR
19:02 24.7 °C -0.5 °C 1018.5 hPa NNW 14.8 km/h 14.8 km/h 19 % 0.0 mm 244.0 W/m2 CLR
19:07 24.5 °C 0.1 °C 1018.5 hPa NW 20.4 km/h 20.4 km/h 20 % 0.0 mm 221.0 W/m2 CLR
19:12 24.3 °C 0.6 °C 1018.5 hPa NW 24.1 km/h 24.1 km/h 21 % 0.0 mm 202.0 W/m2 CLR
19:17 24.2 °C -0.2 °C 1018.5 hPa NNW 20.4 km/h 20.4 km/h 20 % 0.0 mm 185.0 W/m2 CLR
19:22 24.1 °C -0.3 °C 1018.5 hPa NNW 20.9 km/h 20.9 km/h 20 % 0.0 mm 167.0 W/m2 CLR
19:27 24.0 °C -0.4 °C 1018.5 hPa NW 20.9 km/h 20.9 km/h 20 % 0.0 mm 148.0 W/m2 CLR
19:32 23.9 °C -0.4 °C 1018.5 hPa NW 16.7 km/h 16.7 km/h 20 % 0.0 mm 127.0 W/m2 CLR
19:37 23.8 °C -0.5 °C 1018.5 hPa WNW 18.5 km/h 18.5 km/h 20 % 0.0 mm 109.0 W/m2 CLR
19:42 23.7 °C 0.1 °C 1018.5 hPa NNW 16.7 km/h 16.7 km/h 21 % 0.0 mm 93.0 W/m2 CLR
19:47 23.6 °C 0.6 °C 1018.5 hPa NW 16.7 km/h 16.7 km/h 22 % 0.0 mm 77.0 W/m2 FEW
19:52 23.4 °C 0.4 °C 1018.5 hPa NNW 14.8 km/h 14.8 km/h 22 % 0.0 mm 49.0 W/m2 SCT
19:57 23.3 °C 0.4 °C 1018.5 hPa NW 5.6 km/h 5.6 km/h 22 % 0.0 mm 46.0 W/m2 SCT
20:02 23.1 °C 0.2 °C 1018.5 hPa NW 13.0 km/h 13.0 km/h 22 % 0.0 mm 37.0 W/m2 BKN
20:07 22.9 °C 0.7 °C 1018.5 hPa NW 5.6 km/h 5.6 km/h 23 % 0.0 mm 26.0 W/m2 BKN
20:12 22.7 °C 1.1 °C 1018.5 hPa Calm     24 % 0.0 mm 16.0 W/m2 BKN
20:17 22.2 °C 1.2 °C 1018.5 hPa Calm     25 % 0.0 mm 14.0 W/m2 BKN
20:22 21.9 °C 0.4 °C 1018.5 hPa NW 5.6 km/h 5.6 km/h 24 % 0.0 mm 11.0 W/m2 BKN
20:27 21.6 °C 0.7 °C 1018.5 hPa Calm     25 % 0.0 mm 9.0 W/m2 BKN
20:32 21.1 °C 0.8 °C 1018.5 hPa Calm     26 % 0.0 mm 7.0 W/m2 BKN
20:37 20.6 °C 0.9 °C 1018.5 hPa Calm     27 % 0.0 mm 0.0 W/m2 OVC
20:42 20.2 °C 1.1 °C 1018.5 hPa Calm     28 % 0.0 mm 0.0 W/m2 OVC
20:47 19.8 °C 0.8 °C 1018.5 hPa Calm     28 % 0.0 mm 0.0 W/m2 CLR
20:52 19.5 °C 1.0 °C 1018.8 hPa Calm     29 % 0.0 mm 0.0 W/m2 CLR
20:57 19.2 °C 1.2 °C 1018.8 hPa Calm     30 % 0.0 mm 0.0 W/m2 CLR
21:02 18.9 °C 1.4 °C 1018.8 hPa Calm     31 % 0.0 mm 0.0 W/m2 CLR
21:07 18.7 °C 1.2 °C 1018.8 hPa Calm     31 % 0.0 mm 0.0 W/m2 CLR
21:12 18.4 °C 1.8 °C 1019.2 hPa Calm     33 % 0.0 mm 0.0 W/m2 CLR
21:17 18.3 °C 1.7 °C 1019.2 hPa Calm     33 % 0.0 mm 0.0 W/m2 CLR
21:22 18.1 °C 2.0 °C 1019.2 hPa Calm     34 % 0.0 mm 0.0 W/m2 CLR
21:27 18.1 °C 1.5 °C 1019.5 hPa West 5.6 km/h 5.6 km/h 33 % 0.0 mm 0.0 W/m2 CLR
21:32 18.3 °C 1.3 °C 1019.5 hPa West 1.9 km/h 1.9 km/h 32 % 0.0 mm 0.0 W/m2 CLR
21:37 18.3 °C 1.3 °C 1019.5 hPa West 1.9 km/h 1.9 km/h 32 % 0.0 mm 0.0 W/m2 CLR
21:42 18.3 °C 1.3 °C 1019.5 hPa Calm     32 % 0.0 mm 0.0 W/m2 CLR
21:48 17.8 °C 1.3 °C 1019.9 hPa West 5.6 km/h 5.6 km/h 33 % 0.0 mm 0.0 W/m2 CLR
21:52 17.9 °C 0.9 °C 1019.9 hPa West 11.3 km/h 11.3 km/h 32 % 0.0 mm 0.0 W/m2 CLR
21:58 18.3 °C 0.8 °C 1019.9 hPa West 9.3 km/h 9.3 km/h 31 % 0.0 mm 0.0 W/m2 CLR
22:03 18.3 °C 0.8 °C 1019.9 hPa West 5.6 km/h 5.6 km/h 31 % 0.0 mm 0.0 W/m2 CLR
22:07 18.1 °C 1.1 °C 1019.9 hPa Calm     32 % 0.0 mm 0.0 W/m2 CLR
22:13 17.9 °C 1.4 °C 1020.2 hPa West 6.4 km/h 6.4 km/h 33 % 0.0 mm 0.0 W/m2 CLR
22:18 18.1 °C 1.5 °C 1020.2 hPa West 12.9 km/h 12.9 km/h 33 % 0.0 mm 0.0 W/m2 CLR
22:23 18.3 °C 1.7 °C 1020.2 hPa West 9.7 km/h 9.7 km/h 33 % 0.0 mm 0.0 W/m2 CLR
22:28 18.1 °C 1.6 °C 1020.2 hPa West 9.3 km/h 9.3 km/h 33 % 0.0 mm 0.0 W/m2 CLR
22:33 17.9 °C 1.8 °C 1020.2 hPa WSW 11.1 km/h 11.1 km/h 34 % 0.0 mm 0.0 W/m2 CLR
22:38 17.8 °C 2.2 °C 1020.2 hPa WSW 7.4 km/h 7.4 km/h 35 % 0.0 mm 0.0 W/m2 CLR
22:43 17.6 °C 1.9 °C 1020.2 hPa West 5.6 km/h 5.6 km/h 35 % 0.0 mm 0.0 W/m2 CLR
22:48 17.4 °C 2.6 °C 1020.5 hPa West 9.3 km/h 9.3 km/h 37 % 0.0 mm 0.0 W/m2 CLR
22:53 17.6 °C 2.7 °C 1020.5 hPa West 11.3 km/h 11.3 km/h 37 % 0.0 mm 0.0 W/m2 CLR
22:58 17.7 °C 2.8 °C 1020.2 hPa West 14.8 km/h 14.8 km/h 37 % 0.0 mm 0.0 W/m2 CLR
23:03 17.7 °C 2.8 °C 1020.2 hPa WNW 11.1 km/h 11.1 km/h 37 % 0.0 mm 0.0 W/m2 CLR
23:08 17.6 °C 3.1 °C 1020.2 hPa West 14.8 km/h 14.8 km/h 38 % 0.0 mm 0.0 W/m2 CLR
23:13 17.6 °C 3.1 °C 1020.5 hPa WNW 20.4 km/h 20.4 km/h 38 % 0.0 mm 0.0 W/m2 CLR
23:18 17.6 °C 3.4 °C 1020.2 hPa WNW 18.5 km/h 18.5 km/h 39 % 0.0 mm 0.0 W/m2 CLR
23:23 17.7 °C 3.6 °C 1020.2 hPa West 18.5 km/h 18.5 km/h 39 % 0.0 mm 0.0 W/m2 CLR
23:28 17.6 °C 3.8 °C 1020.2 hPa West 18.5 km/h 18.5 km/h 40 % 0.0 mm 0.0 W/m2 CLR
23:33 17.6 °C 3.8 °C 1020.2 hPa WNW 22.2 km/h 22.2 km/h 40 % 0.0 mm 0.0 W/m2 CLR
23:38 17.7 °C 3.9 °C 1020.2 hPa WNW 20.4 km/h 20.4 km/h 40 % 0.0 mm 0.0 W/m2 CLR
23:43 17.7 °C 3.9 °C 1020.5 hPa West 18.5 km/h 18.5 km/h 40 % 0.0 mm 0.0 W/m2 CLR
23:48 17.7 °C 3.9 °C 1020.5 hPa WNW 19.3 km/h 19.3 km/h 40 % 0.0 mm 0.0 W/m2 CLR
23:53 17.7 °C 3.9 °C 1020.5 hPa West 22.2 km/h 22.2 km/h 40 % 0.0 mm 0.0 W/m2 CLR
23:58 17.6 °C 4.2 °C 1020.5 hPa WNW 18.5 km/h 18.5 km/h 41 % 0.0 mm 0.0 W/m2 CLR
Lo Temps de Massalio
Compliments of Weather Underground - 1.25 mb